Notices

What's New in latest Release from April 7th, 2021:

- Updated Glossary, including Speed of Maximum Gust, and Total Hourly Precipitation

- Updated national and regional climate services offices contacts and prices information

- Addition of station inventory lists for 1981-2010, 1971-2000, and 1961-1990 Normals.

If you haven't already, please take our survey and provide feedback about our website: https://eccc.sondage-survey.ca/f/LanguageSelection.aspx?s=442ca660-fcf1-47c0-95a9-59707d6fd709

Hourly Data Report for February 11, 2021

OTTAWA INTL A
ONTARIO
Current Station Operator: NAVCAN

45°19'00.000" N
75°40'00.000" W
114.90 m
6106001
71628
YOW

Download Data

Hourly Data (February 2021)
Hourly Data Report for February 11, 2021
TIME
LST
Temp Definition
°C
Dew Point Definition
°C
Rel Hum Definition
%
Precip. Amount Definition
mm

Wind Dir Definition
10's deg

Wind Spd Definition
km/h
Visibility Definition
km
Stn Press Definition
kPa
Hmdx Definition


Wind Chill Definition


Weather Definition


00:00 -12.0 -17.0 67   36 3 24.1 101.09   -14 LegendNANA
01:00 -11.9 -16.8 67   29 5 24.1 101.13   -15 Cloudy
02:00 -11.6 -16.6 67   31 8 24.1 101.14   -16 LegendNANA
03:00 -12.9 -16.7 74   26 5 24.1 101.12   -16 LegendNANA
04:00 -12.3 -17.4 66   29 10 24.1 101.15   -18 Cloudy
05:00 -13.9 -18.2 70   26 5 24.1 101.16   -17 LegendNANA
06:00 -15.4 -19.6 71   30 14 24.1 101.19   -23 LegendNANA
07:00 -16.8 -20.8 72   31 11 24.1 101.22   -24 Mainly Clear
08:00 -17.9 -21.1 77   31 14 24.1 101.26   -26 LegendNANA
09:00 -14.7 -19.3 68   31 14 24.1 101.32   -22 LegendNANA
10:00 -11.5 -18.1 59   33 20 24.1 101.37   -20 Clear
11:00 -10.4 -19.2 49   33 19 24.1 101.41   -18 LegendNANA
12:00 -9.7 -19.3 46   31 24 24.1 101.43   -18 LegendNANA
13:00 -9.4 -18.2 49   30 24 24.1 101.39   -18 Clear
14:00 -9.1 -18.4 47   28 23 24.1 101.36   -17 LegendNANA
15:00 -9.4 -18.5 48   30 29 24.1 101.37   -19 LegendNANA
16:00 -9.7 -19.3 46   28 25 24.1 101.38   -18 Clear
17:00 -11.6 -19.5 53   26 13 24.1 101.44   -18 LegendNANA
18:00 -12.2 -20.4 51   28 16 24.1 101.50   -20 LegendNANA
19:00 -14.1 -21.0 56   33 17 24.1 101.57   -22 Clear
20:00 -13.4 -23.5 43   34 22 24.1 101.59   -23 LegendNANA
21:00 -14.1 -23.7 45   34 19 24.1 101.61   -23 LegendNANA
22:00 -15.6 -24.3 48   32 19 24.1 101.70   -25 Clear
23:00 -16.3 -24.3 51   33 19 24.1 101.69   -26 LegendNANA

Notes on Data Quality.

Legend

  • E = Estimated
  • M = Missing
  • NA = Not Available*
  • [empty] = Indicates an unobserved value
Date modified: